cover

 

Get it on iTunes StoreListen on Apple Music

Beatspace

#Trackname / Key / BPM / Publish dateArtists, Remixers / Label
1 110 bpm, 4A / F minor, 2018-12-13, Electronica,  0  12
2 147 bpm, 4A / F minor, 2018-12-13, Electronica,  0  12
3 147 bpm, 5A / C minor, 2018-12-13, Electronica,  0  12
4 110 bpm, 3A / Bb minor, 2018-12-13, Electronica,  0  12
5 125 bpm, 1A / Ab minor, 2018-12-13, Electronica,  0  12
6 120 bpm, 9B / G major, 2018-12-13, Electronica,  0  12
7 90 bpm, 4A / F minor, 2018-12-13, Electronica,  0  12
8 120 bpm, 6A / G minor, 2018-12-13, Electronica,  0  12
9 90 bpm, 7B / F major, 2018-12-13, Electronica,  0  12
10 110 bpm, 7B / F major, 2018-12-13, Electronica,  0  12
11 120 bpm, 1A / Ab minor, 2018-12-13, Electronica,  0  12
12 110 bpm, 7B / F major, 2018-12-13, Electronica,  0  12
13 110 bpm, 7A / D minor, 2018-07-02, Electronica,  0  11
14 115 bpm, 10B / D major, 2018-07-02, Electronica,  0  11
15 120 bpm, 8B / C major, 2018-07-02, Electronica,  0  11
16 120 bpm, 7B / F major, 2018-07-02, Electronica,  0  11
17 110 bpm, 9B / G major, 2018-07-02, Electronica,  0  11
18 130 bpm, 10B / D major, 2018-07-02, Electronica,  0  11
19 110 bpm, 6A / G minor, 2018-07-02, Electronica,  0  11
20 115 bpm, 8B / C major, 2018-07-02, Electronica,  0  11
21 115 bpm, 8A / A minor, 2018-07-02, Electronica,  0  11
22 110 bpm, 8A / A minor, 2018-07-02, Electronica,  0  11
23 90 bpm, 8B / C major, 2018-07-02, Electronica,  0  11
24 146 bpm, 2A / Eb minor, 2017-06-13, Psy-Trance,  0  14
25 146 bpm, 7A / D minor, 2017-06-13, Psy-Trance,  0  14
26 145 bpm, 2A / Eb minor, 2017-06-13, Psy-Trance,  1  14
27 146 bpm, 8A / A minor, 2017-06-13, Psy-Trance,  0  14
28 99 bpm, 2B / F# major, 2017-06-13, Psy-Trance,  0  14
29 148 bpm, 11A / F# minor, 2017-06-13, Psy-Trance,  0  14
30 150 bpm, 11B / A major, 2017-06-13, Psy-Trance,  0  14
31 150 bpm, 8A / A minor, 2017-06-13, Psy-Trance,  0  14
32 149 bpm, 8A / A minor, 2017-06-13, Psy-Trance,  0  14
33 152 bpm, 10B / D major, 2017-06-13, Psy-Trance,  0  14
34 150 bpm, 11B / A major, 2017-06-13, Psy-Trance,  0  14
35 149 bpm, 11B / A major, 2017-06-13, Psy-Trance,  0  14
36 149 bpm, 8A / A minor, 2017-06-13, Psy-Trance,  0  14
37 148 bpm, 12A / Db minor, 2017-06-13, Psy-Trance,  0  14
38 110 bpm, 1A / Ab minor, 2017-03-29, Electronica,  0  15
39 110 bpm, 8A / A minor, 2017-03-29, Electronica,  0  15
40 120 bpm, 8A / A minor, 2017-03-29, Electronica,  0  15
41 110 bpm, 8A / A minor, 2017-03-29, Electronica,  0  15
42 110 bpm, 7B / F major, 2017-03-29, Electronica,  0  15
43 110 bpm, 7B / F major, 2017-03-29, Electronica,  0  15
44 110 bpm, 7A / D minor, 2017-03-29, Electronica,  0  15
45 110 bpm, 11B / A major, 2017-03-29, Electronica,  0  15
46 110 bpm, 5A / C minor, 2017-03-29, Electronica,  0  15
47 110 bpm, 7A / D minor, 2017-03-29, Electronica,  0  15
48 110 bpm, 7B / F major, 2017-03-29, Electronica,  0  15
49 110 bpm, 6A / G minor, 2017-03-29, Electronica,  0  15
50 110 bpm, 4A / F minor, 2017-03-29, Electronica,  0  15
51 110 bpm, 8A / A minor, 2017-03-29, Electronica,  0  15
52 146 bpm, 7B / F major, 2017-03-29, Electronica,  0  15
53 145 bpm, 2B / F# major, 2016-07-08, Psy-Trance,  0  11
54 145 bpm, 8A / A minor, 2016-07-08, Psy-Trance,  0  11
55 146 bpm, 7A / D minor, 2016-07-08, Psy-Trance,  0  11
56 147 bpm, 7B / F major, 2016-07-08, Psy-Trance,  0  11
57 147 bpm, 7B / F major, 2016-07-08, Psy-Trance,  0  11
58 99 bpm, 8A / A minor, 2016-07-08, Psy-Trance,  0  11
59 99 bpm, 3A / Bb minor, 2016-07-08, Psy-Trance,  0  11
60 150 bpm, 6B / Bb major, 2016-07-08, Psy-Trance,  0  11
61 148 bpm, 7B / F major, 2016-07-08, Psy-Trance,  0  11
62 151 bpm, 8A / A minor, 2016-07-08, Psy-Trance,  0  11
63 146 bpm, 7A / D minor, 2016-07-08, Psy-Trance,  0  11
64 99 bpm, 7B / F major, 2016-04-30, Psy-Trance,  0  5
65 148 bpm, 11A / F# minor, 2016-04-30, Psy-Trance,  0  5
66 150 bpm, 11A / F# minor, 2016-04-30, Psy-Trance,  0  5
67 99 bpm, 12B / E major, 2016-04-30, Psy-Trance,  0  5
68 99 bpm, 8A / A minor, 2016-04-30, Psy-Trance,  0  5
69 99 bpm, 8A / A minor, 2016-01-09, Psy-Trance,  0  9
70 150 bpm, 8A / A minor, 2016-01-09, Psy-Trance,  0  9
71 152 bpm, 11B / A major, 2016-01-09, Psy-Trance,  0  9
72 154 bpm, 1B / B major, 2016-01-09, Psy-Trance,  0  9
73 152 bpm, 11B / A major, 2016-01-09, Psy-Trance,  0  9
74 152 bpm, 8A / A minor, 2016-01-09, Psy-Trance,  0  9
75 154 bpm, 9A / E minor, 2016-01-09, Psy-Trance,  0  9
76 152 bpm, 11B / A major, 2016-01-09, Psy-Trance,  0  9
77 153 bpm, 1A / Ab minor, 2016-01-09, Psy-Trance,  0  9
78 110 bpm, 7B / F major, 2015-11-28, Electronica,  0  10
79 120 bpm, 1A / Ab minor, 2015-11-28, Electronica,  0  10
80 160 bpm, 11B / A major, 2015-11-28, Electronica,  0  10
81 120 bpm, 8B / C major, 2015-11-28, Electronica,  0  10
82 110 bpm, 7B / F major, 2015-11-28, Electronica,  0  10
83 110 bpm, 12A / Db minor, 2015-11-28, Electronica,  0  10
84 125 bpm, 7B / F major, 2015-11-28, Electronica,  0  10
85 120 bpm, 8A / A minor, 2015-11-28, Electronica,  1  10
86 110 bpm, 6B / Bb major, 2015-11-28, Electronica,  0  10
87 120 bpm, 8A / A minor, 2015-11-28, Electronica,  0  10
88 148 bpm, 8A / A minor, 2015-11-14, Psy-Trance,  0  3
89 148 bpm, 8A / A minor, 2015-11-14, Psy-Trance,  0  3
90 148 bpm, 3A / Bb minor, 2015-11-14, Psy-Trance,  0  3
91 150 bpm, 6B / Bb major, 2015-10-12, Psy-Trance,  0  3
92 148 bpm, 6B / Bb major, 2015-10-12, Psy-Trance,  0  3
93 150 bpm, 8B / C major, 2015-10-12, Psy-Trance,  0  3
94 136 bpm, 10A / B minor, 2015-10-11, Psy-Trance,  0  2
95 137 bpm, 4A / F minor, 2015-10-11, Dubstep,  0  2
96 149 bpm, 11B / A major, 2015-09-24, Psy-Trance,  0  10
97 148 bpm, 5B / Eb major, 2015-09-24, Psy-Trance,  0  10
98 148 bpm, 11B / A major, 2015-09-24, Psy-Trance,  0  10
99 150 bpm, 7A / D minor, 2015-09-24, Psy-Trance,  0  10
100 150 bpm, 11B / A major, 2015-09-24, Psy-Trance,  0  10
×

Sign in

Sign in to access your personalized pages, follow artists and labels you love, and create playlists fromyour favorite tracks.

Please wait...